Location: Balaclava NSW 2575, Australia
(34.4510°S, 150.4953°E)
Time: 15:23:17
(UTC+10:00)

Envisat - Pass Details

Date: 24 May 2021
Orbit: 764 x 766 km, 98.1° (Epoch: 18 June)

Event Time Altitude Azimuth Distance (km) Brightness Sun altitude
Rises 04:30:09 0° 18° (NNE) 3,217 6.5 -28.6°
Reaches altitude 10° 04:32:26 10° 20° (NNE) 2,299 5.7 -28.1°
Maximum altitude 04:37:30 75° 104° (ESE) 801 3.1 -27.1°
Enters shadow 04:38:43 52° 174° (S) 958 3.4 -26.9°
